Location: Calberlah
(52.4230°N, 10.6240°E)
Time: 00:44:58
(UTC+00:00)

Cosmos 2360 Rocket - Pass Details

Date: 19 May 2025
Orbit: 834 x 842 km, 71.0° (Epoch: 22 June)

Event Time Altitude Azimuth Distance (km) Brightness Sun altitude
Rises 21:24:33 0° 329° (NNW) 3,395 7.3 -13.8°
Reaches altitude 10° 21:27:18 10° 340° (NNW) 2,457 6.1 -14.0°
Maximum altitude 21:32:15 31° 42° (NE) 1,441 3.6 -14.3°
Drops below altitude 10° 21:37:12 10° 103° (ESE) 2,448 4.3 -14.6°
Enters shadow 21:37:52 - 107° (ESE) 2,669 4.4 -14.6°
